Escanaba, MI

12:35 AM EST on November 21, 2017 (GMT -0500)
Delta County

Weather History for KESC - January, 2011

Change the Weather History Date:

Saturday, January 15, 2011

  Actual Average Record
Temperature  
Mean Temperature 16 °F -  
Max Temperature 23 °F 22 °F 38 °F (1949)
Min Temperature 10 °F 5 °F -25 °F (1972)
Degree Days  
Heating Degree Days 48    
Moisture  
Dew Point 7 °F    
Average Humidity 64    
Maximum Humidity 80    
Minimum Humidity 45    
Precipitation  
Precipitation 0.00 in - - ()
Sea Level Pressure  
Sea Level Pressure 29.95 in    
Wind  
Wind Speed 9 mph (NW)    
Max Wind Speed 21 mph    
Max Gust Speed 32 mph    
Visibility 7 miles    
Events      
Averages and records for this station are not official NWS values.
T = Trace of Precipitation, MM = Missing Value Source: NWS Daily Summary

Daily Weather History Graph

Daily Weather History Graph

Search for Another Location

Airport or City:

Trip Planner

Search our weather history database for the weather conditions in past years. The results will help you decide how hot, cold, wet, or windy it might be!

Date:

Astronomy

Jan. 15, 2011 Rise Set
Actual Time 8:25 AM EST 5:30 PM EST
Civil Twilight 7:52 AM EST 6:03 PM EST
Nautical Twilight 7:15 AM EST 6:40 PM EST
Astronomical Twilight 6:39 AM EST 7:16 PM EST
Moon 1:25 PM EST (1/15) 4:31 AM EST (1/15)
Length of Visible Light 10h 11m
Length of Day
9h 04m
Waxing Gibbous, 80% of the Moon is Illuminated
Jan 15
Waxing Gibbous
Jan 19
Full
Jan 26
Last Quarter
Feb 2
New
Feb 11
First Quarter

Hourly Weather History & Observations

Time (EST) Temp. Windchill Dew Point Humidity Pressure Visibility Wind Dir Wind Speed Gust Speed Precip Events Conditions
12:15 AM 19.4 °F - 14.0 °F 80% 29.95 in 1.5 mi Calm Calm - N/A   Overcast
12:35 AM 19.4 °F 12.8 °F 14.0 °F 80% 29.95 in 1.8 mi SW 4.6 mph - N/A   Overcast
12:55 AM 19.4 °F 11.5 °F 12.2 °F 74% 29.93 in 0.8 mi WSW 5.8 mph - N/A   Overcast
1:15 AM 19.4 °F 11.5 °F 12.2 °F 74% 29.92 in 1.8 mi WSW 5.8 mph - N/A   Overcast
1:35 AM 19.4 °F 11.5 °F 12.2 °F 74% 29.91 in 1.2 mi WSW 5.8 mph - N/A   Overcast
1:55 AM 19.4 °F 11.5 °F 12.2 °F 74% 29.90 in 1.5 mi WSW 5.8 mph - N/A   Overcast
2:15 AM 19.4 °F 11.5 °F 12.2 °F 74% 29.89 in 1.5 mi WSW 5.8 mph - N/A   Overcast
2:35 AM 19.4 °F 10.4 °F 12.2 °F 74% 29.88 in 2.0 mi West 6.9 mph - N/A   Overcast
2:55 AM 17.6 °F 9.3 °F 12.2 °F 79% 29.88 in 4.0 mi West 5.8 mph - N/A   Overcast
3:15 AM 17.6 °F 10.7 °F 12.2 °F 79% 29.87 in 1.8 mi West 4.6 mph - N/A   Overcast
3:35 AM 17.6 °F 9.3 °F 12.2 °F 79% 29.86 in 2.0 mi West 5.8 mph - N/A   Overcast
3:55 AM 17.6 °F 10.7 °F 12.2 °F 79% 29.85 in 2.0 mi West 4.6 mph - N/A   Overcast
4:15 AM 17.6 °F 8.2 °F 12.2 °F 79% 29.84 in 2.5 mi West 6.9 mph - N/A   Overcast
4:35 AM 17.6 °F 7.3 °F 12.2 °F 79% 29.84 in 3.0 mi West 8.1 mph - N/A   Overcast
4:55 AM 17.6 °F 7.3 °F 12.2 °F 79% 29.82 in 5.0 mi West 8.1 mph - N/A   Overcast
5:15 AM 17.6 °F 7.3 °F 12.2 °F 79% 29.82 in 5.0 mi West 8.1 mph - N/A   Overcast
5:35 AM 17.6 °F 7.3 °F 10.4 °F 73% 29.81 in 6.0 mi West 8.1 mph - N/A   Overcast
5:55 AM 15.8 °F 4.2 °F 10.4 °F 79% 29.81 in 7.0 mi West 9.2 mph - N/A   Scattered Clouds
6:15 AM 15.8 °F 5.1 °F 8.6 °F 73% 29.81 in 10.0 mi WNW 8.1 mph - N/A   Clear
6:35 AM 15.8 °F 4.2 °F 8.6 °F 73% 29.80 in 10.0 mi West 9.2 mph - N/A   Clear
6:55 AM 15.8 °F 3.4 °F 8.6 °F 73% 29.80 in 10.0 mi West 10.4 mph - N/A   Clear
7:15 AM 15.8 °F 2.1 °F 8.6 °F 73% 29.80 in 10.0 mi WNW 12.7 mph - N/A   Clear
7:35 AM 15.8 °F 2.7 °F 8.6 °F 73% 29.80 in 10.0 mi WNW 11.5 mph - N/A   Partly Cloudy
7:55 AM 17.6 °F 3.7 °F 10.4 °F 73% 29.81 in 8.0 mi NW 13.8 mph 19.6 mph N/A   Mostly Cloudy
8:15 AM 17.6 °F 4.3 °F 10.4 °F 73% 29.82 in 9.0 mi NW 12.7 mph - N/A   Scattered Clouds
8:35 AM 19.4 °F 6.6 °F 12.2 °F 74% 29.83 in 5.0 mi NW 12.7 mph - N/A   Mostly Cloudy
8:55 AM 21.2 °F 9.5 °F 14.0 °F 74% 29.85 in 4.0 mi NW 11.5 mph 17.3 mph N/A   Overcast
9:15 AM 21.2 °F 8.9 °F 14.0 °F 74% 29.87 in 6.0 mi NW 12.7 mph 16.1 mph N/A   Overcast
9:35 AM 23.0 °F 10.6 °F 14.0 °F 68% 29.89 in 10.0 mi NW 13.8 mph 20.7 mph N/A   Mostly Cloudy
9:55 AM 23.0 °F 9.2 °F 12.2 °F 63% 29.91 in 9.0 mi NNW 17.3 mph 21.9 mph N/A   Scattered Clouds
10:15 AM 23.0 °F 10.1 °F 12.2 °F 63% 29.92 in 9.0 mi NW 15.0 mph 27.6 mph N/A   Mostly Cloudy
10:35 AM 23.0 °F 10.6 °F 10.4 °F 59% 29.93 in 7.0 mi NNW 13.8 mph 27.6 mph N/A   Mostly Cloudy
10:55 AM 23.0 °F 9.6 °F 10.4 °F 59% 29.95 in 7.0 mi NNW 16.1 mph 32.2 mph N/A   Mostly Cloudy
11:15 AM 23.0 °F 10.1 °F 8.6 °F 54% 29.96 in 9.0 mi NNW 15.0 mph 28.8 mph N/A   Mostly Cloudy
11:35 AM 21.2 °F 5.6 °F 8.6 °F 58% 29.97 in 4.0 mi NNW 20.7 mph 29.9 mph N/A   Mostly Cloudy
11:55 AM 21.2 °F 7.3 °F 6.8 °F 54% 29.97 in 5.0 mi NNW 16.1 mph 31.1 mph N/A   Mostly Cloudy
12:15 PM 21.2 °F 7.3 °F 5.0 °F 50% 29.97 in 3.0 mi NW 16.1 mph 29.9 mph N/A   Partly Cloudy
12:35 PM 21.2 °F 6.8 °F 6.8 °F 54% 29.98 in 8.0 mi NW 17.3 mph 26.5 mph N/A   Mostly Cloudy
12:55 PM 19.4 °F 5.0 °F 5.0 °F 54% 29.98 in 8.0 mi NNW 16.1 mph 29.9 mph N/A   Mostly Cloudy
1:15 PM 19.4 °F 3.2 °F 3.2 °F 49% 29.99 in 10.0 mi NNW 20.7 mph 27.6 mph N/A   Mostly Cloudy
1:35 PM 19.4 °F 4.1 °F 3.2 °F 49% 29.99 in 10.0 mi NW 18.4 mph 26.5 mph N/A   Mostly Cloudy
2:15 PM 17.6 °F 4.3 °F 1.4 °F 49% 30.01 in 10.0 mi NNW 12.7 mph 29.9 mph N/A   Scattered Clouds
2:35 PM 17.6 °F 1.7 °F 1.4 °F 49% 30.02 in 10.0 mi NW 18.4 mph 26.5 mph N/A   Mostly Cloudy
2:55 PM 17.6 °F 1.3 °F 1.4 °F 49% 30.03 in 10.0 mi NW 19.6 mph 26.5 mph N/A   Mostly Cloudy
3:15 PM 17.6 °F 3.2 °F -0.4 °F 45% 30.05 in 10.0 mi NW 15.0 mph 27.6 mph N/A   Mostly Cloudy
3:35 PM 17.6 °F 2.2 °F -0.4 °F 45% 30.05 in 10.0 mi NW 17.3 mph 27.6 mph N/A   Mostly Cloudy
3:55 PM 15.8 °F 0.3 °F -0.4 °F 49% 30.07 in 10.0 mi NNW 16.1 mph 23.0 mph N/A   Mostly Cloudy
4:15 PM 15.8 °F 0.3 °F -2.2 °F 45% 30.09 in 10.0 mi NNW 16.1 mph 24.2 mph N/A   Scattered Clouds
4:35 PM 14.0 °F 0.5 °F -2.2 °F 49% 30.10 in 10.0 mi NNW 11.5 mph 23.0 mph N/A   Partly Cloudy
4:55 PM 14.0 °F -2.0 °F -2.2 °F 49% 30.11 in 10.0 mi NNW 16.1 mph 24.2 mph N/A   Partly Cloudy
5:15 PM 12.2 °F -3.7 °F -0.4 °F 57% 30.12 in 10.0 mi NW 15.0 mph 23.0 mph N/A   Mostly Cloudy
5:35 PM 12.2 °F -3.7 °F -2.2 °F 53% 30.13 in 10.0 mi NW 15.0 mph 19.6 mph N/A   Scattered Clouds
5:55 PM 12.2 °F -3.7 °F -2.2 °F 53% 30.14 in 10.0 mi NW 15.0 mph 21.9 mph N/A   Clear
6:15 PM 10.4 °F -3.3 °F -4.0 °F 52% 30.16 in 10.0 mi NW 10.4 mph 16.1 mph N/A   Clear
6:35 PM 10.4 °F -5.4 °F -4.0 °F 52% 30.16 in 10.0 mi NW 13.8 mph 20.7 mph N/A   Partly Cloudy
6:55 PM 10.4 °F -5.4 °F -4.0 °F 52% 30.16 in 10.0 mi NNW 13.8 mph 20.7 mph N/A   Partly Cloudy
7:15 PM 10.4 °F -2.4 °F -2.2 °F 57% 30.17 in 10.0 mi NNW 9.2 mph 20.7 mph N/A   Mostly Cloudy
7:35 PM 10.4 °F -3.3 °F -2.2 °F 57% 30.17 in 10.0 mi NW 10.4 mph 21.9 mph N/A   Mostly Cloudy
7:55 PM 10.4 °F -4.1 °F -2.2 °F 57% 30.17 in 10.0 mi NW 11.5 mph 25.3 mph N/A   Partly Cloudy
8:15 PM 10.4 °F -4.8 °F -4.0 °F 52% 30.18 in 10.0 mi NNW 12.7 mph 19.6 mph N/A   Clear
8:35 PM 10.4 °F -3.3 °F -4.0 °F 52% 30.18 in 10.0 mi NW 10.4 mph 18.4 mph N/A   Clear
8:55 PM 8.6 °F -4.7 °F -2.2 °F 62% 30.18 in 10.0 mi NW 9.2 mph 19.6 mph N/A   Clear
9:35 PM 10.4 °F -4.8 °F -2.2 °F 57% 30.19 in 10.0 mi WNW 12.7 mph 18.4 mph N/A   Scattered Clouds
9:55 PM 8.6 °F -7.0 °F -2.2 °F 62% 30.19 in 10.0 mi WNW 12.7 mph 23.0 mph N/A   Partly Cloudy
10:15 PM 8.6 °F -7.7 °F -4.0 °F 57% 30.19 in 10.0 mi WNW 13.8 mph - N/A   Clear
10:35 PM 8.6 °F -7.0 °F -5.8 °F 52% 30.20 in 10.0 mi WNW 12.7 mph - N/A   Clear
10:55 PM 8.6 °F -5.5 °F -5.8 °F 52% 30.20 in 10.0 mi WNW 10.4 mph - N/A   Clear
11:15 PM 8.6 °F -6.3 °F -5.8 °F 52% 30.20 in 10.0 mi WNW 11.5 mph - N/A   Clear
11:35 PM 6.8 °F -7.8 °F -5.8 °F 56% 30.21 in 10.0 mi WNW 10.4 mph - N/A   Clear
11:55 PM 6.8 °F -5.9 °F -5.8 °F 56% 30.21 in 10.0 mi WNW 8.1 mph - N/A   Clear